Regional Weather Roundup
Issued by NWS

Home | Current Version | Previous Version | Text Only | Print | Product List | Glossary On
Versions: 1 2 3 4 5 6 7 8 9 10 11 12 13 14 15 16 17 18 19 20 21 22 23 24 25 26 27 28 29 30 31 32 33 34 35 36 37 38 39 40 41 42 43 44 45 46 47 48 49 50
000
ASUS45 KBOI 292110
RWRID

IDAHO REGIONAL WEATHER ROUNDUP
NATIONAL WEATHER SERVICE BOISE ID
300 PM MDT WED JUL 29 2015

NOTE: "FAIR" INDICATES FEW OR NO CLOUDS BELOW 12000 FEET
WITH NO SIGNIFICANT WEATHER AND/OR OBSTRUCTIONS TO VISIBILITY

IDZ012-014-292200-
SOUTHWEST IDAHO


CITY           SKY/WX    TMP DP  RH WIND       PRES   REMARKS
BOISE          SUNNY     86  29  12 E7        30.20F
CALDWELL       SUNNY     86  36  16 NE7       30.21F
MOUNTAIN HOME  SUNNY     84  27  12 SE10      30.20F
$$

IDZ016-017-292200-
SOUTHCENTRAL IDAHO


CITY           SKY/WX    TMP DP  RH WIND       PRES   REMARKS
BURLEY         SUNNY     80  29  15 NW7       30.26F
JEROME         SUNNY     81  30  15 CALM      30.27F
TWIN FALLS     SUNNY     84  28  13 N8        30.24F
$$

IDZ019>023-292200-
SOUTHEAST IDAHO


CITY           SKY/WX    TMP DP  RH WIND       PRES   REMARKS
IDAHO FALLS    SUNNY     76  34  21 W7        30.32F
POCATELLO      SUNNY     81  37  20 N10       30.30F
REXBURG        SUNNY     75  32  20 SW5       30.33F
$$

IDZ006-010-011-018-031-032-292200-
CENTRAL IDAHO MOUNTAINS


CITY           SKY/WX    TMP DP  RH WIND       PRES   REMARKS
MCCALL         SUNNY     75  35  23 S6        30.31S
HAILEY         SUNNY     73  41  31 SE12      30.34F
STANLEY          N/A     73  30  20 N8        30.38F
SALMON         SUNNY     75  45  33 N6        30.24F
CHALLIS        SUNNY     78  35  21 MISG      30.29F
$$

IDZ002-004-006-007-026-292200-
NORTHERN IDAHO


CITY           SKY/WX    TMP DP  RH WIND       PRES   REMARKS
LEWISTON       SUNNY     90  37  15 VRB3      30.14F
LOWELL           N/A     91  41  17 CALM      30.14F
COEUR D`ALENE  SUNNY     86  39  19 NW9G17    30.17F
MULLAN PASS    MOSUNNY   69  36  29 MISG      30.37S
$$


USA.gov is the U.S. government's official web portal to all federal, state and local government web resources and services.